Tracking 22454 objects as of 4-Mar-2021
HD Live streaming from Space Station
objects crossing your sky now

THOR ABLESTAR R/B

Track THOR ABLESTAR R/B now!
10-day predictions


NORAD ID: 204
Int'l Code: 1961-031C
Perigee: 952.2 km
Apogee: 1,098.0 km
Inclination: 32.4 °
Period: 105.5 minutes
Semi major axis: 7396 km
RCS: 3.5845 m2 (large)
Launch date: November 15, 1961
Source: United States (US)
Launch site: AIR FORCE EASTERN TEST RANGE (AFETR)

Note: This is a ROCKET BODY
aabbcc
Your satellite tracking list
Your tracking list is empty




NASA's NSSDC Master Catalog

Two Line Element Set (TLE):
1 00204U 61031C   21063.34485148  .00000035  00000-0  16472-4 0  9998
2 00204  32.4435  28.0001 0098561  17.2605 343.1334 13.64881509959054
Source of the keplerian elements: AFSPC